Regional Weather Roundup
Issued by NWS

Home | Current Version | Previous Version | Graphics & Text | Print | Product List | Glossary On
Versions: 1 2 3 4 5 6 7 8 9 10 11 12 13 14 15 16 17 18 19 20 21 22 23 24 25 26 27 28 29 30 31 32 33 34 35 36 37 38 39 40 41 42 43 44 45 46 47 48 49 50
000
ASUS43 KDTX 202001
RWRMI
MICHIGAN HOURLY REGIONAL WEATHER ROUNDUP
NATIONAL WEATHER SERVICE DETROIT/PONTIAC MI
400 PM EDT SAT SEP 20 2014

NOTE: "FAIR" INDICATES FEW OR NO CLOUDS BELOW 12,000 FEET WITH NO
SIGNIFICANT WEATHER AND/OR OBSTRUCTION TO VISIBILITY.

MIZ047>049-052>055-059>063-066>070-074>076-081>083-202100-
SOUTHEAST LOWER MICHIGAN

CITY           SKY/WX    TMP DP  RH WIND       PRES   REMARKS
ADRIAN         PTSUNNY   79  60  52 SW12G21   29.87F
ALMA           PTSUNNY   76  64  65 SW17G30   29.78S
ANN ARBOR      PTSUNNY   76  61  59 SW12      29.85F
BAD AXE        PTSUNNY   76  64  64 SW18G28   29.74F
CARO           PTSUNNY   75  64  67 S15G22    29.75F
DETROIT CITY   PTSUNNY   80  61  52 SW15G21   29.83F
DETROIT        LGT RAIN  78  62  57 S21G26    29.85F
FLINT          PTSUNNY   78  63  59 S15G26    29.79F
GROSSE ILE     MOSUNNY   81  61  50 SW12G17   29.84F
HILLSDALE      LGT RAIN  71  67  88 S5        29.86F
HOWELL         PTSUNNY   77  62  60 SW15G24   29.82F

CITY           SKY/WX    TMP DP  RH WIND       PRES   REMARKS
JACKSON        PTSUNNY   76  62  62 SW13G20   29.84F
LAMBERTVILLE   SUNNY     81  59  47 SW12G18   29.87S
LANSING        PTSUNNY   77  63  61 SW16      29.81F
LAPEER         MOCLDY    77  61  58 SW14      29.80F
MASON          PTSUNNY   78  64  61 S8G16     29.82F
MONROE         MOSUNNY   81  61  50 SW15G21   29.85F
MT. CLEMENS    PTSUNNY   78  63  59 SW16G23   29.81F
PONTIAC        CLOUDY    75  61  61 S14G21    29.83F
PORT HOPE        N/A     76  60  57 SW8G22    29.71F
PORT HURON     PTSUNNY   75  64  69 S13       29.82F
TRI CITIES     MOSUNNY   79  63  57 SW21G32   29.75F
TROY           PTSUNNY   79  59  50 SW15G21   29.85F
SAGINAW HB     PTSUNNY   79  61  53 SW14      29.75F
$$
MIZ043>046-050>051-056>058-064>065-071>073-077>080-202100-
SOUTHWEST LOWER MICHIGAN

CITY           SKY/WX    TMP DP  RH WIND       PRES   REMARKS
BATTLE CREEK   CLOUDY    77  63  61 SW17      29.85S
BENTON HARBOR  LGT RAIN  72  67  84 SW10      29.84F
BIG RAPIDS     LGT RAIN  70  64  83 SW13G21   29.75S
COLDWATER      RAIN      74  67  78 SW5       29.86F
FREMONT        CLOUDY    65  63  92 SW10G17   29.76F FOG
HOLLAND        CLOUDY    74  66  76 SW21G30   29.80F
GRAND RAPIDS   PTSUNNY   76  69  79 SW14G24   29.79F
IONIA          FAIR      77  64  64 SW16G30   29.79S
KALAMAZOO      LGT RAIN  78  64  61 SW12G22   29.83F
LUDINGTON      PTSUNNY   67  63  86 SW16G23   29.74S
MARSHALL       CLOUDY    76  64  66 SW12G21   29.84F
MOUNT PLEASANT MOSUNNY   78  63  60 SW18G26   29.75S
MUSKEGON       TSTM      66  62  87 SW20G28   29.78F FOG
SOUTH HAVEN    CLOUDY    73  67  82 SW10      29.82F
$$
MIZ016>042-202100-
NORTHERN LOWER MICHIGAN

CITY           SKY/WX    TMP DP  RH WIND       PRES   REMARKS
ALPENA         RAIN      66  63  90 SW10      29.68F FOG
BEAVER ISLAND  MOSUNNY   69  63  80 SW14G28   29.63R
BELLAIRE       CLOUDY    68  62  81 S6        29.68F
CADILLAC       CLOUDY    66  64  93 SW12      29.73F
CHARLEVOIX     PTSUNNY   71  64  80 SW12G23   29.68S
FRANKFORT      LGT RAIN  64  60  85 S8G16     29.71S
GAYLORD        CLOUDY    65  62  90 SW14      29.70F
GRAYLING       LGT RAIN  67  66  99 W3        29.73F
HARBOR SPRINGS CLOUDY    68  62  81 SW12G17   29.65S
HOUGHTON LAKE  LGT RAIN  72  61  68 SW9       29.72S
MANISTEE       CLOUDY    70  61  73 W12G20    29.72S
OSCODA         CLOUDY    74  61  64 SW13      29.69S
PELLSTON       PTSUNNY   70  64  81 SW14G21   29.65S
ROGERS CITY    CLOUDY    70  64  80 SW15G24   29.67R
TRAVERSE CITY  CLOUDY    70  63  78 SW9       29.68F
$$
MIZ007>008-015-202100-
EASTERN UPPER MICHIGAN

CITY           SKY/WX    TMP DP  RH WIND       PRES   REMARKS
KINROSS        CLOUDY    66  63  88 SW8G16    29.63R
MACKINAC ISLAN CLOUDY    65  62  90 SW12G17   29.63S
NEWBERRY       CLOUDY    63  62  97 SW5       29.62F FOG
S. S. MARIE    CLOUDY    66  61  84 SW16G22   29.61R
$$
MIZ004>006-011>014-085-202100-
CENTRAL UPPER MICHIGAN

CITY           SKY/WX    TMP DP  RH WIND       PRES   REMARKS
MANISTIQUE     CLOUDY    68  62  80 N9        29.61F
ESCANABA       CLOUDY    77  57  50 NW13      29.60R
MENOMINEE      CLOUDY    73  63  68 SW8G17    29.63S
SAWYER-GWINN   MOSUNNY   70  55  60 W16G22    29.64F
$$
MIZ001>003-009>011-084-202100-
WESTERN UPPER MICHIGAN

CITY           SKY/WX    TMP DP  RH WIND       PRES   REMARKS
IRON MOUNTAIN  MOSUNNY   73  53  49 NW17G31   29.66R
HOUGHTON       CLOUDY    59  53  80 W13       29.66R
COPPER HARBOR    N/A     59  52  77 N21       29.64R
IRONWOOD       PTSUNNY   64  55  72 NW16      29.70R
$$

ABBREVIATIONS USED IN REMARKS
   TC - TEMPERATURE IN CELSIUS
  WCI - WIND CHILL INDEX
   HX - HEAT INDEX
  VSB - VISIBILITY




USA.gov is the U.S. government's official web portal to all federal, state and local government web resources and services.